EHI
0 0 0 0 0 0 0 0 0 1 3 3 2 3 5 5 5 8 11 14 18 19 17 14 11 10 9 8 7 5 5 6 5 5 7 8 7 4 3 4 6 7 7 6
0 0 0 0 0 0 1 1 1 2 3 2 1 1 3 3 4 7 10 13 16 16 14 11 9 8 8 8 7 4 3 4 4 4 6 6 5 4 3 3 4 5 5 4
0 0 0 0 0 1 2 3 2 3 2 1 0 0 1 2 4 7 9 10 12 12 10 8 6 7 8 8 7 4 3 2 3 4 4 4 3 3 3 3 4 4 3 3
0 0 0 0 0 1 3 4 3 2 1 0 1 1 2 4 6 7 6 6 7 8 7 5 5 6 8 8 6 5 5 4 3 4 4 4 4 4 4 4 4 4 4 4
0 0 0 0 0 1 2 3 2 1 1 1 2 2 2 5 7 7 5 4 4 5 5 4 4 6 8 8 7 6 7 7 5 6 6 6 6 6 6 5 5 5 5 4
0 0 0 0 0 0 1 1 1 1 2 3 4 3 2 4 7 8 6 4 2 2 2 3 4 6 8 8 7 6 7 7 7 7 8 8 8 7 6 6 5 5 4 2
0 0 0 0 0 0 0 0 0 1 3 4 3 3 3 4 6 7 6 3 1 0 1 2 3 4 6 6 6 6 6 7 8 8 8 7 7 6 5 5 5 5 3 1
0 0 0 0 0 0 0 0 0 1 2 2 3 3 3 4 6 6 5 4 1 0 0 1 2 3 4 4 6 7 7 7 8 8 7 5 4 4 4 4 3 3 2 1
0 0 0 0 0 0 0 0 0 1 2 2 2 2 2 5 6 5 5 4 3 2 1 0 1 2 3 4 5 8 8 8 7 7 6 4 3 3 3 2 1 1 1 1
0 0 0 0 0 0 0 0 1 2 2 2 1 1 2 4 5 4 4 3 3 3 2 1 1 2 3 4 6 7 8 8 7 6 6 4 2 2 2 2 1 1 1 1
0 0 0 0 0 0 0 1 2 2 1 1 1 1 2 3 4 4 3 2 2 2 1 1 2 3 4 5 6 7 7 7 6 5 4 2 1 1 1 1 1 0 0 0
0 0 0 0 0 0 0 1 2 2 1 1 2 2 3 3 4 4 3 3 3 2 2 3 3 4 5 5 6 6 6 5 3 3 2 0 0 0 0 0 0 0 0 0
0 0 0 0 0 0 0 1 1 1 1 2 2 2 3 3 4 4 4 4 5 4 3 3 3 3 3 3 3 3 3 2 1 1 0 0 0 0 0 0 0 0 0 0
0 0 0 0 0 0 0 1 2 2 2 2 2 1 2 3 4 5 4 4 4 4 3 3 3 2 1 1 1 1 1 1 0 0 0 0 0 0 0 0 0 0 0 0
0 0 0 0 0 0 0 1 1 1 1 2 3 3 3 4 4 4 4 3 3 3 3 2 2 1 0 0 0 0 0 0 0 0 0 0 0 0 0 0 0 0 0 0
0 0 0 0 0 0 0 0 0 0 0 2 5 5 4 3 4 4 3 3 2 2 1 1 1 0 0 0 0 0 0 0 0 0 0 0 0 0 0 0 0 0 0 0
0 0 0 0 0 0 0 0 0 0 1 3 4 4 4 4 5 5 3 1 1 1 0 0 0 0 0 0 0 0 0 0 0 0 0 0 0 0 0 0 0 0 0 0
0 0 0 0 0 0 0 0 0 0 1 2 2 1 2 4 5 3 1 0 0 0 0 0 0 0 0 0 0 0 0 0 0 0 0 0 0 0 0 0 0 0 0 0
0 0 0 0 0 0 0 0 0 0 1 1 0 0 1 3 3 1 0 0 0 0 0 0 0 0 0 0 0 0 0 0 0 0 0 0 0 0 0 0 0 0 0 0
0 0 0 0 0 0 0 0 0 0 0 0 0 0 1 2 2 1 0 0 0 0 0 0 0 0 0 0 0 0 0 0 0 0 0 0 0 0 0 0 0 0 0 0
0 0 0 0 0 0 0 0 0 0 0 0 0 0 0 1 1 1 0 0 0 0 0 0 0 0 0 0 0 0 0 0 0 0 0 0 0 0 0 0 0 0 0 0
0 0 0 0 0 0 0 0 0 0 0 0 0 0 0 0 0 0 0 0 0 0 0 0 0 0 0 0 0 0 0 0 0 0 0 0 0 0 0 0 0 0 0 0
0 0 0 0 0 0 0 0 0 0 0 0 0 0 0 0 0 0 0 0 0 0 0 0 0 0 0 0 0 0 0 0 0 0 0 0 0 0 0 0 0 0 0 0
0 0 0 0 0 0 0 0 0 0 0 0 0 0 0 0 0 0 0 0 0 0 0 0 0 0 0 0 0 0 0 0 0 0 0 0 0 0 0 0 0 0 0 0
0 0 0 0 0 0 0 0 0 0 0 0 0 0 0 0 0 0 0 0 0 0 0 0 0 0 0 0 0 0 0 0 0 0 0 0 0 0 0 0 0 0 0 0
0 0 0 0 0 0 0 0 0 0 0 0 0 0 0 0 0 0 0 0 0 0 0 0 0 0 0 0 0 0 0 0 0 0 0 0 0 0 0 0 0 0 0 0
0 0 0 0 0 0 0 0 0 0 0 0 0 0 0 0 0 0 0 0 0 0 0 0 0 0 0 0 0 0 0 0 0 0 0 0 0 0 0 0 0 0 0 0
Wind_Speed
3 3 3 2 2 3 4 6 7 6 5 6 4 3 2 0 2 2 2 2 2 2 2 1 1 2 2 2 3 4 4 4 4 3 3 2 3 3 3 3 3 3 3 3
1 0 2 1 1 2 2 3 4 2 4 4 2 1 1 1 2 2 1 1 1 1 2 1 2 2 2 2 2 3 4 4 3 2 2 3 3 3 3 3 2 2 3 3
2 2 1 3 4 3 2 2 4 5 5 2 1 2 3 3 3 3 3 2 2 3 3 3 3 3 3 3 2 3 3 3 3 3 4 4 4 3 3 3 3 3 3 3
2 2 5 7 2 3 3 1 2 2 3 3 3 3 2 3 4 3 2 2 2 2 3 3 3 2 2 2 2 3 3 2 2 2 3 3 3 3 3 3 3 3 3 3
4 3 4 4 2 2 3 3 2 3 1 0 0 1 2 2 2 2 3 2 3 3 2 2 2 2 2 2 1 2 2 2 2 3 2 3 3 3 3 2 3 3 3 3
4 4 6 6 2 1 3 3 3 3 3 2 2 0 4 3 2 2 1 1 1 1 0 0 1 2 2 2 1 2 3 3 3 3 3 3 3 3 2 2 3 3 3 3
3 3 6 5 3 1 4 6 2 3 4 3 4 5 4 2 2 2 1 1 1 1 1 1 2 2 2 2 3 3 2 2 2 3 3 3 2 2 2 2 2 2 3 3
4 3 6 3 1 3 5 2 1 1 2 2 3 2 1 1 2 1 0 1 1 1 0 0 1 2 2 3 3 1 2 2 3 2 2 2 1 2 1 2 2 2 2 3
6 6 4 2 2 2 2 2 1 1 1 1 1 2 2 1 1 1 1 0 0 1 0 0 1 2 3 3 2 2 1 2 3 2 2 2 2 2 2 2 2 2 2 3
2 4 3 3 2 2 1 1 1 1 2 2 2 2 2 1 1 1 1 1 1 1 0 1 1 1 2 2 1 1 2 2 2 2 1 1 1 2 2 3 3 3 3 3
2 4 3 3 2 2 2 1 1 2 2 2 2 2 2 2 2 1 1 1 1 1 1 1 1 1 1 1 1 1 1 2 2 2 2 1 2 2 3 3 4 4 4 4
5 5 3 5 3 2 1 2 1 1 3 3 1 2 1 1 1 1 1 1 1 1 1 1 1 2 2 1 1 2 1 1 1 1 1 1 1 2 3 3 4 5 5 5
5 4 3 4 4 2 1 2 1 1 1 2 2 0 1 1 0 1 1 1 1 1 0 0 1 2 3 2 1 1 2 2 2 2 2 2 2 2 2 3 3 2 3 3
3 1 1 3 3 3 1 1 1 2 1 1 1 0 1 1 1 1 1 1 1 1 0 0 1 2 3 2 1 1 2 2 2 2 2 3 3 3 2 2 3 3 3 2
3 2 3 2 2 2 2 2 2 2 2 2 1 1 1 1 1 1 1 0 1 1 0 0 1 3 3 2 1 1 2 2 2 2 2 2 2 2 2 2 2 2 2 2
2 1 0 0 1 2 1 1 1 2 2 2 1 1 1 2 1 1 0 1 1 1 1 1 2 3 3 2 1 1 2 2 2 2 2 2 2 2 2 2 2 2 2 2
2 1 1 1 2 2 2 2 2 2 2 2 3 2 1 1 1 1 1 1 1 2 2 2 3 3 2 2 1 2 2 2 2 1 1 2 2 2 2 2 2 2 3 2
4 4 4 4 3 2 2 2 2 2 3 3 2 1 1 2 2 2 2 1 0 1 2 2 2 2 2 2 2 1 1 1 1 1 1 1 1 1 1 2 2 2 2 2
2 2 2 2 2 2 2 2 2 2 2 1 1 1 1 1 2 2 1 1 1 2 3 3 2 1 2 3 2 1 1 1 1 1 1 1 1 1 1 2 2 2 2 2
1 1 2 2 1 1 2 2 1 1 1 1 1 1 1 1 1 1 1 2 2 3 2 2 1 1 2 2 2 1 1 1 1 1 1 1 1 2 2 2 2 2 2 2
1 1 1 1 1 2 1 1 1 1 2 1 1 2 2 2 1 1 1 1 2 1 1 1 1 1 1 2 1 1 1 1 1 1 1 1 2 2 2 2 3 3 3 3
1 1 1 1 1 2 2 2 2 2 1 1 1 1 1 1 1 0 1 2 2 2 1 1 1 2 2 1 1 1 1 1 1 1 1 1 2 2 2 2 3 3 3 3
2 2 1 1 2 2 3 2 2 2 2 2 2 2 2 2 2 2 2 2 2 2 1 1 2 2 2 1 0 1 1 1 2 2 2 2 2 2 3 3 2 2 2 3
2 2 2 1 1 1 2 3 2 2 2 2 2 2 2 2 2 2 2 2 2 2 1 2 2 2 1 0 0 1 1 1 2 2 2 2 2 2 2 2 2 2 2 3
1 1 1 1 1 2 2 2 1 1 2 2 2 2 2 2 2 2 1 2 2 2 2 2 2 2 1 1 1 1 1 2 2 2 2 3 3 3 2 3 3 3 3 2
1 1 1 2 2 2 1 1 1 1 1 1 1 1 1 0 1 1 1 1 1 1 1 1 1 1 1 2 2 2 2 2 2 2 3 3 3 3 3 3 4 3 3 2
1 1 1 2 2 1 1 1 1 1 1 1 1 1 1 1 0 0 0 0 1 1 1 1 1 1 1 2 2 2 2 2 3 3 3 3 3 3 3 3 2 2 2 2
Wind_Direction
222 224 167 185 219 179 176 184 185 213 214 257 266 265 265 37 88 88 93 111 146 144 134 152 177 180 201 200 189 182 177 181 202 217 208 217 227 224 224 228 234 226 228 235
328 256 169 206 265 188 189 176 183 189 247 250 265 55 66 122 136 143 173 180 175 146 128 181 215 206 200 198 185 174 181 193 200 208 214 226 232 229 224 232 236 231 235 241
226 281 36 267 243 205 195 196 180 208 228 206 150 191 206 194 176 182 199 209 194 171 168 202 218 206 197 195 170 165 182 195 191 196 214 228 234 233 233 237 233 235 243 242
148 121 218 244 242 175 167 227 196 200 213 193 198 232 242 210 191 194 197 204 220 214 200 210 210 202 182 139 156 165 176 193 202 213 223 231 232 237 241 235 233 239 245 248
129 173 259 285 248 169 171 248 211 184 208 243 76 26 310 260 212 213 213 210 220 228 217 203 191 176 141 137 171 177 192 206 216 217 226 235 240 243 242 238 245 243 244 246
130 158 222 240 261 218 124 257 242 189 193 202 119 129 265 273 263 244 223 200 212 208 129 163 209 163 154 170 187 222 227 225 219 213 219 234 242 246 244 236 246 248 253 252
156 200 254 259 295 102 164 240 255 198 200 187 197 216 239 266 267 248 232 233 186 147 176 213 207 175 183 201 221 228 229 228 228 219 219 226 238 255 243 233 241 252 259 265
149 185 248 296 79 167 216 264 250 211 209 215 232 243 243 231 224 203 196 290 162 138 209 277 196 177 197 234 244 210 196 217 230 229 232 232 231 265 254 228 234 247 260 278
187 212 244 267 228 245 198 209 236 225 246 201 240 261 268 252 240 201 179 215 234 150 113 344 203 184 210 247 226 200 197 228 232 237 238 222 214 231 249 246 242 247 245 259
260 270 277 294 298 295 223 216 245 237 237 212 242 250 260 254 252 198 162 164 130 103 75 319 324 277 240 256 222 189 217 244 248 237 248 262 248 234 230 238 245 250 251 256
257 274 305 309 303 301 325 336 352 336 307 249 221 248 237 231 228 210 172 164 131 137 181 286 306 311 301 252 191 207 237 254 257 242 224 236 260 253 243 244 239 236 243 240
226 233 214 256 275 298 309 308 316 349 329 326 276 244 233 231 214 173 153 119 96 111 113 348 335 335 323 297 216 202 232 253 254 252 249 240 251 299 307 271 268 250 240 237
227 239 237 263 287 289 261 278 287 261 250 304 315 218 186 254 242 128 115 119 153 183 178 337 348 332 313 296 259 221 237 253 255 245 245 250 248 243 282 318 321 293 271 262
233 194 283 285 287 305 304 305 330 340 337 327 306 74 106 87 68 112 207 212 200 169 146 332 336 311 306 307 299 267 265 258 251 246 248 251 250 247 242 250 282 303 306 290
271 240 224 262 306 329 343 7 10 337 340 343 353 92 119 145 202 232 253 176 141 117 23 354 320 302 307 312 311 289 273 263 256 254 253 248 245 246 247 247 256 279 300 307
280 350 99 98 299 311 344 357 324 299 305 307 300 257 201 185 181 191 241 154 153 232 264 274 284 293 310 323 323 299 274 268 270 257 260 257 244 238 243 242 250 264 274 281
169 212 219 240 261 277 284 272 249 260 280 278 263 246 183 143 138 154 243 220 196 253 266 265 278 295 311 310 296 279 271 267 279 285 272 257 243 237 233 229 239 258 269 268
208 216 208 201 211 232 265 272 257 249 249 247 250 215 181 171 193 209 231 239 101 320 304 294 296 313 316 312 301 281 263 258 261 267 280 272 250 232 227 235 248 262 279 277
195 204 216 211 208 205 237 261 262 264 261 228 202 218 220 214 209 203 176 162 183 261 286 300 308 322 318 314 323 298 282 276 286 297 287 271 257 255 243 245 255 261 270 278
203 208 219 241 248 231 241 253 261 286 274 215 190 218 244 245 214 203 173 190 222 235 249 276 291 307 309 309 324 298 281 267 268 282 282 263 258 263 258 252 252 255 261 270
286 264 249 247 273 281 260 244 234 263 274 231 206 227 239 245 207 171 161 266 290 277 260 272 278 291 301 307 312 307 298 297 288 279 275 271 270 268 264 258 255 257 260 266
288 267 258 251 261 281 282 269 245 247 266 275 255 221 199 232 230 216 239 236 254 265 253 263 274 294 315 324 331 336 328 324 319 314 301 286 276 275 276 272 266 265 263 262
296 285 275 262 253 267 287 281 260 241 242 242 232 217 219 231 215 199 257 264 247 260 256 267 289 304 325 354 360 343 337 331 325 317 308 298 287 277 274 272 273 274 275 272
306 308 290 272 244 235 273 282 278 263 255 252 241 225 211 224 258 246 239 256 252 258 260 264 273 294 318 350 339 319 312 311 306 299 292 290 290 285 279 278 278 277 278 282
303 307 318 329 283 264 264 279 303 300 285 276 277 266 234 212 226 253 250 241 239 245 259 265 266 274 279 282 266 273 280 290 296 295 292 294 290 285 283 280 277 278 282 284
299 292 282 267 254 259 263 247 254 271 274 282 306 309 308 279 228 225 236 250 249 240 252 275 276 255 244 254 261 268 272 281 283 279 278 279 279 278 279 280 279 278 282 287
3 358 349 340 324 301 283 260 258 275 259 227 254 303 339 0 25 40 50 17 356 323 297 289 280 265 255 259 267 273 275 279 281 281 281 278 276 273 275 276 281 286 291 297